Miscellaneous Local Product
Issued by NWS North Platte, NE

Home | Current Version | Previous Version | Text Only | Print | Product List | Glossary On
Versions: 1 2 3 4 5 6 7 8 9 10 11 12 13 14 15 16 17 18 19 20 21 22 23 24 25 26 27 28 29 30 31 32 33 34 35 36 37 38 39 40 41 42 43 44 45 46 47 48 49 50
000
AXUS43 KLBF 242010
MISLBF


WESTERN AND NORTH CENTRAL NEBRASKA HOURLY WEATHER ROUNDUP
NATIONAL WEATHER SERVICE NORTH PLATTE NE
200 PM CST WED DEC 24 2014

***STATIONS NOT REPORTING VARIABLES SUCH AS SKY/WEATHER OR
PRESSURE ARE PROVIDED BY THE NEBRASKA DEPARTMENT OF
ROADS...RAWS...AND APRS NETWORKS...AND ARE NOT UNDER
NATIONAL WEATHER SERVICE QUALITY CONTROL***

...OBSERVATIONS IN AND NEAR THE EASTERN PANHANDLE OF NEBRASKA...

CITY           SKY/WX    TMP DP  RH WIND       PRES   REMARKS
PINE RIDGE     PTSUNNY   37  20  50 W13       29.62F WCI  29
CHADRON        MOSUNNY   36  26  67 S5        29.62F WCI  32
ALLIANCE       MOSUNNY   41  24  51 W14       29.63F
SIDNEY         SUNNY     36  22  56 SW12      29.69F WCI  28
WHITECLAY        N/A     37  19  46 CALM        N/A
CRESCENT LAKE    N/A     42  21  42 W13         N/A
LISCO            N/A     43  16  32 W5          N/A
BIG SPRINGS      N/A     37  22  56 W13         N/A  WCI  29
$$

...OBSERVATIONS IN NORTH CENTRAL NEBRASKA...

CITY           SKY/WX    TMP DP  RH WIND       PRES   REMARKS
VALENTINE      SUNNY     35  21  56 SW10      29.64F WCI  27
THEDFORD       SUNNY     38  24  56 SW9       29.66F WCI  32
AINSWORTH      SUNNY     34  24  66 SW12      29.64F WCI  25
O`NEILL        SUNNY     32  25  75 S5        29.71F WCI  27
ORD            SUNNY     36  21  54 SW8       29.72F WCI  30
BROKEN BOW     SUNNY     36  25  64 S10       29.71F WCI  28
BROWNLEE         N/A     34  17  49 S12         N/A  WCI  26
BREWSTER         N/A     38  24  56 SW12        N/A  WCI  30
ROSE             N/A     38  25  59 SE5         N/A  WCI  34
COMSTOCK         N/A     40  21  47 W8          N/A  WCI  34
CHAMBERS         N/A     34  22  61 S7          N/A  WCI  28
EWING            N/A     30  28  92 CALM        N/A
$$

...OBSERVATIONS IN SOUTHWEST NEBRASKA AND FAR NORTHEAST COLORADO...

CITY           SKY/WX    TMP DP  RH WIND       PRES   REMARKS
WRAY           FAIR      44  21  39 SW12      29.72F
HOLYOKE        FAIR      43  23  45 SW12      29.70F
IMPERIAL       SUNNY     40  21  46 SW12      29.71F WCI  33
OGALLALA       SUNNY     38  23  54 W10       29.69F WCI  32
NORTH PLATTE   SUNNY     41  18  39 W13       29.70F
MCCOOK         SUNNY     41  18  39 SW10      29.76F
LEXINGTON      SUNNY     39  25  57 S12       29.74F WCI  31
PAXTON           N/A     40  28  63 SW12        N/A  WCI  33
BRADY            N/A     37  21  53 CALM        N/A
GOTHENBURG       N/A     39  18  43 SW7         N/A  WCI  34
CALLAWAY         N/A     36  27  71 S12         N/A  WCI  28
$$

...NORTH PLATTE AREA...

CITY           SKY/WX    TMP DP  RH WIND       PRES   REMARKS
AIRPORT        SUNNY     41  18  39 W13       29.70F
DOWNTOWN         N/A     39  21  48 SW5G13      N/A
$$

...SOME WEATHER OBSERVATIONS FROM AROUND THE REGION...

CITY           SKY/WX    TMP DP  RH WIND       PRES   REMARKS
DENVER         PTSUNNY   50  17  27 W10       29.68F
LARAMIE        MOSUNNY   32  15  49 SW18      29.72F WCI  20
CHEYENNE       PTSUNNY   39  18  42 NW10G18   29.68F WCI  32
SCOTTSBLUFF    SUNNY     40  24  53 SW6       29.66F
RAPID CITY     PTSUNNY   35  24  64 E5        29.55F WCI  31
PIERRE         MOSUNNY   27  20  75 SE8       29.63F WCI  19
WINNER         FAIR      32  20  61 S12       29.63F WCI  23
SIOUX FALLS    CLOUDY    26  25  96 W9        29.71F FOG     WCI  17
OMAHA          CLOUDY    31  28  89 NW7       29.79F WCI  24
GRAND ISLAND   SUNNY     38  23  55 W10       29.76F WCI  31
KANSAS CITY    CLOUDY    37  32  82 W13       29.80F WCI  29
WICHITA        MOSUNNY   42  29  59 W10       29.89F
HAYS           SUNNY     43  18  36 SW13G20   29.83F
LIBERAL        SUNNY     45  21  39 W15G21    29.92F
GOODLAND       SUNNY     39  20  46 SW21      29.75F WCI  29
$$



USA.gov is the U.S. government's official web portal to all federal, state and local government web resources and services.